Powrót do katalogu

OPS 4682 DEB

AktywnyPO
NORAD 58027·DEBRIS·🇺🇸 United States

Wystrzelony Apr 3, 1965 z Vandenberg Space Force Base

Loading…

Następne Przeloty (najbliższe 24 godziny)

TLE

Starzejące sięSource: Space-Track

Epoka: Sep 8, 2026, 03:22 UTC

1 58027U 65027HQ  26251.14033411  .00000710  00000-0  23954-2 0  9998
2 58027  90.2575  17.5126 0034411 181.0455 357.4299 12.98051219587097

Śledź OPS 4682 DEB w czasie rzeczywistym z AllMySat

Download on the App Store